This demonstration page uses our WeatherBlox Daily Observations layout. Learn more.

Left ArrowRight Arrow

40.92501, -98.34201

Hourly Observations for February 19, 2022

Temp ( °F °C ) Dew Point ( °F °C ) Humidity (%) Winds ( mph kmh ) Pressure ( in mb ) Visibility ( mi km ) Precip ( " mm )
12:53 am 00:53 Clear 27 -2.8 11 -11.7 51 51 N 10 17 30.39 1029 10 16 0.00 0.00
1:53 am 01:53 Mostly Clear 26 -3.3 7 -13.9 44 44 NNE 9 15 30.41 1030 10 16 0.00 0.00
2:53 am 02:53 Cloudy 23 -5 5 -15 46 46 ENE 12 19 30.42 1030 10 16 0.00 0.00
3:53 am 03:53 Cloudy 20 -6.7 1 -17.2 43 43 ENE 10 17 30.44 1031 10 16 0.00 0.00
4:53 am 04:53 Mostly Cloudy 19 -7.2 0 -17.8 43 43 ENE 7 11 30.45 1031 10 16 0.00 0.00
5:53 am 05:53 Cloudy 19 -7.2 -1 -18.3 41 41 ENE 7 11 30.47 1032 10 16 0.00 0.00
6:53 am 06:53 Cloudy 19 -7.2 -2 -18.9 39 39 E 3 6 30.47 1032 10 16 0.00 0.00
7:53 am 07:53 Partly Cloudy 18 -7.8 -1 -18.3 43 43 SSE 7 11 30.49 1032 10 16 0.00 0.00
8:53 am 08:53 Sunny 21 -6.1 -1 -18.3 38 38 SSE 10 17 30.48 1032 10 16 0.00 0.00
9:53 am 09:53 Sunny 24 -4.4 -1 -18.3 33 33 S 12 19 30.48 1032 10 16 0.00 0.00
10:53 am 10:53 Sunny 29 -1.7 2 -16.7 31 31 SSE 14 22 30.43 1031 10 16 0.00 0.00
11:53 am 11:53 Sunny 33 0.6 3 -16.1 28 28 S 17 28 30.39 1029 10 16 0.00 0.00
12:53 pm 12:53 Sunny 37 2.8 5 -15 26 26 S 21 33 30.32 1027 10 16 0.00 0.00
1:53 pm 13:53 Sunny 40 4.4 8 -13.3 27 27 S 22 35 30.24 1024 10 16 0.00 0.00
2:53 pm 14:53 Sunny 42 5.6 8 -13.3 24 24 S 20 31 30.18 1022 10 16 0.00 0.00
3:53 pm 15:53 Sunny 43 6.1 8 -13.3 24 24 S 22 35 30.12 1020 10 16 0.00 0.00
4:53 pm 16:53 Sunny 43 6.1 6 -14.4 22 22 S 26 43 30.07 1018 10 16 0.00 0.00
5:53 pm 17:53 Sunny 42 5.6 7 -13.9 23 23 S 16 26 30.04 1017 10 16 0.00 0.00
6:53 pm 18:53 Clear 40 4.4 9 -12.8 28 28 S 17 28 30.01 1016 10 16 0.00 0.00
7:53 pm 19:53 Clear 38 3.3 10 -12.2 31 31 S 20 31 29.98 1015 10 16 0.00 0.00
8:53 pm 20:53 Clear 37 2.8 10 -12.2 33 33 S 22 35 29.96 1015 10 16 0.00 0.00
9:53 pm 21:53 Clear 36 2.2 13 -10.6 39 39 S 17 28 29.93 1014 10 16 0.00 0.00
10:53 pm 22:53 Clear 36 2.2 18 -7.8 48 48 S 20 31 29.89 1012 10 16 0.00 0.00
11:53 pm 23:53 Clear 36 2.2 23 -5 59 59 S 15 24 29.84 1010 10 16 0.00 0.00

Powered by AerisWeather